Wind_Speed
6 7 7 8 8 7 8 8 8 8 7 8 8 8 8 7 7 7 7 7 7 7 7 8 7 7 7 6 6 6 6 7 8 7 8 7 7 7 7 8 8 8 7
7 7 7 7 7 7 7 7 7 7 7 7 7 8 7 7 7 7 7 7 7 8 8 9 8 8 8 7 7 7 7 8 8 9 9 8 8 8 8 8 9 9 8
6 7 6 6 7 7 7 6 7 7 7 7 7 7 7 8 8 8 8 7 8 8 9 9 8 9 9 8 8 9 9 9 9 9 8 8 8 9 9 9 10 10 9
4 4 5 6 7 7 6 6 7 6 6 7 7 7 8 9 9 9 9 9 9 8 9 9 9 9 9 9 9 10 10 10 10 9 10 10 10 10 10 11 11 10 10
3 3 5 6 6 6 6 6 5 6 6 6 6 6 7 7 8 9 10 10 9 9 9 9 9 9 9 10 10 11 11 11 11 10 10 10 11 11 11 12 11 11 11
4 3 4 5 5 6 6 6 6 6 5 6 6 6 7 8 9 10 10 10 9 9 9 9 9 10 10 10 10 10 11 11 10 10 11 11 12 12 12 13 12 12 12
4 4 4 3 3 4 5 5 5 5 5 6 6 6 6 7 8 10 10 9 9 9 9 9 10 10 11 11 11 12 12 12 12 12 12 12 12 12 13 13 13 14 13
3 3 2 2 2 3 4 4 4 3 4 5 5 5 5 6 6 7 8 10 10 9 9 9 9 10 10 11 12 12 12 12 13 13 13 13 13 13 14 14 14 14 14
3 2 1 1 2 3 3 3 4 4 4 4 4 5 5 6 7 7 7 8 8 8 8 9 9 9 10 11 11 12 12 12 13 13 14 14 14 14 14 14 14 14 15
2 1 1 1 1 2 3 3 3 3 4 5 5 6 6 7 7 8 8 8 9 9 9 9 10 11 11 11 12 12 12 12 12 13 14 14 14 14 14 15 15 15 16
1 0 1 1 1 2 3 3 4 5 5 5 6 6 7 7 7 7 8 9 9 10 10 10 11 11 11 12 12 13 13 13 13 13 14 14 15 15 16 16 16 17 17
0 1 2 3 3 3 4 5 5 6 7 7 7 7 7 7 7 7 8 9 9 10 11 11 12 11 11 11 12 13 13 14 13 14 15 15 16 16 17 17 17 18 19
2 3 3 4 5 5 5 6 7 7 7 7 8 8 8 8 8 9 9 10 10 11 12 12 12 12 12 12 13 14 15 15 15 15 16 17 17 17 17 18 18 19 19
4 4 5 6 6 7 8 8 8 8 8 9 9 9 9 10 10 11 10 11 11 12 13 13 13 14 14 15 15 15 16 16 16 17 17 17 18 18 19 19 19 19 19
6 7 7 7 8 9 10 11 11 10 10 10 11 11 11 12 12 12 12 13 13 13 14 15 15 15 16 17 17 16 17 18 18 19 19 19 19 20 20 20 20 20 20
9 9 9 9 10 10 11 11 12 12 12 12 12 13 13 13 13 14 14 15 15 15 15 17 17 18 18 18 19 19 19 19 19 20 20 21 21 21 22 21 21 22 22
11 12 12 12 12 12 13 13 13 13 13 14 14 14 15 15 15 16 16 17 17 18 17 18 19 20 20 20 20 20 20 20 21 21 21 22 23 23 23 23 23 23 23
13 14 14 14 14 14 14 15 15 15 15 15 16 16 17 17 17 17 18 18 19 20 20 20 21 21 22 21 21 21 21 21 22 23 23 23 23 23 24 25 25 25 25
16 15 15 16 16 16 16 17 17 17 18 18 18 18 18 18 19 19 19 20 21 21 21 22 22 23 23 23 22 23 23 23 24 24 24 24 24 25 25 25 26 27 27
17 17 18 17 18 18 19 19 20 20 20 20 20 19 19 19 20 21 22 22 22 22 23 23 24 24 24 24 24 24 25 25 25 26 27 27 27 27 27 27 27 28 29
18 19 19 20 20 20 21 22 22 23 22 22 21 21 22 21 22 23 23 24 24 24 24 25 25 25 25 26 26 26 26 26 27 27 28 28 28 28 28 29 29 30 30
20 21 21 22 23 23 23 24 24 24 24 24 24 24 24 24 24 25 25 25 26 26 26 27 27 27 27 28 28 28 28 28 28 29 29 29 30 29 29 30 31 31 31
23 23 23 24 24 25 25 25 25 25 26 26 26 26 27 27 26 27 27 28 28 28 29 29 28 28 28 29 30 30 29 29 30 30 30 30 31 30 31 32 32 32 32
25 25 25 26 26 26 26 27 28 28 29 29 29 29 29 29 30 30 30 30 31 31 31 31 30 30 30 31 31 31 31 32 31 32 32 32 31 32 33 33 33 33 34
26 25 26 26 27 27 28 29 30 31 31 31 31 31 31 32 32 32 32 32 32 32 32 32 33 33 33 33 33 33 33 32 32 33 33 33 33 34 34 35 35 35 35
28 27 27 28 29 29 30 31 31 32 33 32 32 33 33 33 34 34 35 34 34 34 33 33 33 34 34 34 33 33 33 33 33 34 34 35 35 35 35 35 36 36 36
Wind_Direction
158 159 161 158 168 175 179 185 190 194 201 211 212 219 224 226 238 234 238 243 244 244 250 249 245 251 252 253 253 263 267 270 265 265 265 266 266 264 266 268 269 270 280
156 161 158 157 163 174 181 188 196 198 207 215 217 224 229 235 242 237 240 239 245 248 249 248 252 256 253 253 254 260 267 271 266 268 266 265 268 270 268 270 273 272 276
156 161 159 160 164 170 181 187 198 206 211 217 221 226 234 238 240 241 237 241 250 253 254 252 256 255 253 254 257 261 265 269 269 268 264 262 267 270 269 270 274 273 272
152 165 169 166 170 175 181 184 194 209 216 220 226 232 240 240 240 242 244 248 253 255 255 252 255 256 255 257 261 264 264 264 263 265 264 266 269 271 270 272 275 273 270
131 132 155 169 177 181 185 190 198 213 221 225 231 234 237 235 240 247 251 252 252 254 254 251 253 254 257 259 264 267 266 264 265 266 267 268 271 270 270 272 272 273 272
108 117 147 165 173 179 187 196 203 219 228 233 234 233 235 238 244 248 253 250 250 252 251 251 252 255 258 261 265 268 271 272 269 266 268 270 270 270 270 270 273 278 277
106 120 131 138 171 187 196 206 218 232 237 242 243 248 244 247 250 250 253 250 247 249 253 256 260 258 259 262 266 268 270 269 266 267 270 273 272 273 272 273 274 276 277
108 111 125 156 189 202 210 230 236 238 245 242 245 249 252 254 253 253 254 252 252 258 259 262 264 263 263 269 271 273 272 271 270 269 269 271 271 272 273 274 276 276 277
98 100 116 174 207 212 230 243 243 246 251 249 248 255 261 257 256 256 255 254 255 261 263 270 273 271 267 273 273 273 272 275 273 271 271 271 270 274 273 273 277 279 279
98 90 117 170 230 234 245 259 261 261 258 258 256 259 263 259 259 262 265 259 259 263 267 272 271 268 269 276 277 276 276 278 274 273 273 272 275 275 274 277 278 279 281
110 153 285 285 261 271 273 274 276 271 270 270 267 266 266 266 263 266 265 263 262 264 270 271 270 268 271 275 274 275 276 278 275 274 273 274 274 274 276 278 279 281 283
270 292 292 284 276 284 284 280 281 277 278 276 270 267 265 265 270 276 271 266 263 263 266 267 268 271 272 274 272 273 276 277 274 275 274 275 277 277 277 279 281 281 283
282 281 280 280 280 280 287 285 282 280 280 279 273 270 268 271 275 279 272 267 266 269 272 273 271 273 275 278 274 274 276 276 277 280 279 278 277 278 279 280 283 284 282
280 280 274 271 274 277 284 288 286 284 278 278 273 272 273 274 276 278 276 274 272 273 274 273 272 274 275 277 276 275 278 280 279 280 280 279 279 278 280 281 283 286 285
280 281 282 279 276 278 283 284 285 285 282 279 276 273 274 277 277 276 276 276 276 275 275 274 274 274 275 278 278 278 278 280 280 279 278 278 279 279 280 282 282 284 286
279 279 279 279 279 280 284 284 283 283 284 282 280 279 277 278 277 275 274 275 276 277 276 275 275 276 277 277 277 279 279 278 279 280 279 278 278 278 279 281 283 283 284
279 275 274 276 277 279 282 282 281 282 282 282 281 279 277 277 276 277 276 277 278 279 278 277 278 279 279 278 278 278 279 280 281 281 280 279 278 278 279 280 281 281 281
276 276 274 274 277 280 281 281 280 281 281 281 279 277 276 276 276 276 277 279 279 279 279 278 279 280 281 280 279 279 280 281 282 281 281 281 281 281 280 280 279 279 279
274 277 275 273 273 277 279 280 280 281 281 280 278 277 277 277 278 279 279 280 280 280 279 280 280 280 281 280 280 281 281 281 282 283 283 283 283 282 281 279 277 277 279
272 273 274 273 273 276 278 280 280 280 281 279 277 277 278 279 280 282 282 282 282 282 282 282 281 281 282 281 281 280 279 280 282 283 283 282 283 282 280 278 276 276 277
271 273 274 273 274 276 278 280 280 279 279 278 277 278 278 278 280 282 283 282 282 283 284 284 282 282 283 283 282 281 280 280 281 280 280 281 283 283 280 279 278 277 278
272 273 273 273 273 275 276 279 281 281 280 279 279 279 279 278 279 281 282 282 283 283 284 283 283 282 281 282 282 281 281 281 280 279 279 280 281 282 281 280 279 279 279
272 274 274 274 274 274 276 277 279 279 279 279 279 280 281 281 281 281 281 281 282 282 282 282 283 281 280 280 281 280 280 281 280 279 278 279 280 280 281 281 281 282 280
273 275 275 274 274 274 275 275 275 277 278 279 279 279 280 281 282 282 282 282 281 281 281 281 281 280 279 279 280 279 279 280 280 280 279 279 279 279 279 279 279 280 280
275 277 276 275 276 275 275 276 276 276 277 278 279 280 281 281 282 283 282 282 282 282 281 282 282 280 279 279 279 279 279 278 277 278 279 280 280 280 280 279 279 279 279
276 276 276 276 277 276 275 277 277 278 277 278 279 280 282 283 282 282 282 282 282 283 281 281 282 281 280 280 280 279 278 278 279 279 280 281 282 282 281 280 279 279 278
Height
5872 5874 5876 5877 5879 5881 5883 5885 5887 5889 5890 5891 5892 5894 5894 5895 5896 5897 5898 5898 5899 5899 5899 5899 5900 5900 5900 5901 5901 5901 5901 5901 5901 5902 5902 5902 5902 5902 5902 5902 5902 5902 5902
5873 5875 5876 5878 5879 5881 5883 5885 5887 5888 5889 5890 5892 5893 5893 5894 5895 5896 5896 5897 5897 5898 5898 5898 5899 5899 5899 5899 5899 5899 5900 5900 5900 5900 5900 5900 5900 5900 5900 5900 5900 5900 5900
5874 5875 5876 5877 5879 5881 5883 5885 5886 5888 5889 5890 5891 5892 5892 5893 5894 5895 5895 5895 5896 5896 5896 5897 5897 5897 5897 5898 5898 5898 5898 5898 5898 5898 5898 5898 5899 5899 5899 5899 5898 5898 5898
5875 5876 5877 5878 5879 5881 5883 5885 5886 5888 5888 5889 5890 5891 5891 5892 5892 5893 5893 5894 5894 5894 5895 5895 5895 5895 5896 5896 5896 5896 5896 5896 5896 5896 5896 5896 5897 5897 5897 5897 5896 5896 5896
5876 5877 5877 5879 5879 5881 5883 5885 5886 5887 5888 5888 5889 5890 5890 5890 5891 5892 5892 5892 5892 5892 5893 5893 5893 5893 5894 5894 5894 5894 5894 5894 5894 5894 5894 5894 5894 5894 5894 5894 5894 5894 5894
5878 5878 5879 5879 5880 5882 5883 5884 5886 5886 5887 5888 5888 5889 5889 5889 5890 5890 5890 5890 5890 5890 5891 5891 5891 5891 5891 5891 5891 5891 5891 5891 5892 5892 5892 5892 5892 5892 5892 5892 5891 5891 5891
5879 5880 5880 5881 5882 5883 5883 5884 5885 5885 5886 5887 5887 5887 5888 5888 5888 5888 5888 5887 5888 5888 5888 5888 5889 5889 5889 5889 5889 5889 5889 5889 5889 5889 5889 5889 5889 5889 5889 5889 5889 5889 5889
5881 5881 5881 5882 5882 5883 5883 5884 5884 5885 5885 5886 5886 5886 5886 5887 5886 5886 5886 5886 5886 5886 5886 5886 5886 5886 5886 5886 5886 5886 5886 5886 5886 5886 5886 5886 5886 5886 5886 5886 5886 5886 5885
5881 5882 5882 5882 5883 5883 5883 5884 5884 5884 5884 5884 5885 5885 5885 5885 5885 5884 5884 5884 5884 5884 5884 5884 5884 5884 5884 5884 5884 5884 5884 5883 5883 5883 5883 5883 5883 5883 5883 5883 5883 5882 5882
5882 5882 5883 5883 5883 5883 5883 5883 5883 5884 5883 5883 5884 5884 5884 5883 5883 5883 5883 5882 5882 5882 5882 5882 5882 5882 5881 5882 5881 5881 5881 5880 5880 5880 5880 5880 5880 5879 5879 5879 5879 5879 5878
5883 5883 5883 5883 5883 5883 5883 5883 5883 5883 5883 5882 5882 5882 5882 5882 5881 5881 5881 5880 5880 5880 5880 5880 5879 5879 5879 5879 5878 5878 5877 5877 5877 5877 5876 5876 5876 5876 5876 5875 5875 5875 5874
5883 5883 5883 5882 5882 5882 5882 5882 5882 5882 5882 5881 5881 5881 5880 5880 5880 5879 5879 5878 5878 5878 5878 5877 5877 5876 5876 5875 5875 5875 5874 5874 5873 5873 5873 5872 5872 5872 5871 5871 5871 5870 5870
5883 5882 5882 5882 5882 5881 5881 5881 5881 5881 5880 5879 5879 5878 5878 5878 5878 5877 5877 5876 5876 5875 5875 5875 5874 5873 5872 5872 5872 5871 5871 5870 5870 5869 5869 5868 5868 5868 5867 5867 5866 5866 5865
5882 5882 5881 5881 5880 5880 5880 5880 5879 5878 5878 5877 5876 5876 5876 5875 5875 5874 5874 5873 5873 5873 5872 5872 5871 5870 5869 5869 5868 5867 5867 5866 5865 5865 5864 5864 5863 5863 5863 5862 5862 5861 5860
5881 5880 5880 5879 5879 5879 5878 5878 5877 5876 5875 5875 5874 5874 5873 5872 5871 5871 5871 5870 5870 5869 5869 5868 5867 5866 5866 5865 5864 5863 5863 5862 5861 5860 5859 5859 5858 5858 5858 5857 5857 5856 5855
5879 5878 5878 5878 5877 5877 5876 5875 5874 5873 5873 5872 5871 5871 5870 5869 5868 5867 5867 5866 5866 5866 5865 5864 5863 5862 5861 5860 5859 5859 5858 5857 5856 5855 5854 5854 5853 5853 5852 5852 5851 5851 5850
5876 5876 5875 5875 5874 5874 5873 5872 5871 5870 5869 5868 5867 5867 5866 5865 5864 5863 5863 5862 5861 5861 5860 5859 5858 5857 5856 5855 5854 5853 5852 5852 5851 5850 5849 5848 5847 5847 5846 5846 5845 5845 5844
5873 5873 5872 5872 5871 5870 5869 5868 5868 5866 5865 5864 5863 5862 5862 5861 5860 5859 5858 5857 5856 5856 5855 5854 5853 5852 5851 5850 5849 5848 5847 5846 5845 5844 5843 5842 5841 5840 5840 5839 5838 5838 5837
5869 5869 5868 5867 5867 5866 5865 5864 5863 5862 5861 5860 5859 5858 5857 5856 5855 5854 5853 5852 5851 5850 5849 5848 5847 5846 5845 5844 5843 5842 5840 5839 5838 5837 5836 5835 5835 5834 5833 5832 5831 5831 5830
5864 5864 5863 5863 5862 5862 5861 5860 5859 5858 5856 5855 5854 5853 5851 5850 5850 5848 5848 5846 5845 5844 5843 5842 5841 5840 5838 5837 5836 5835 5834 5833 5831 5830 5829 5828 5827 5826 5825 5824 5824 5823 5822
5858 5858 5858 5857 5857 5856 5855 5854 5853 5852 5851 5849 5848 5847 5846 5845 5844 5843 5842 5841 5839 5838 5837 5835 5834 5833 5832 5830 5829 5828 5827 5825 5824 5823 5822 5821 5820 5818 5817 5816 5816 5815 5814
5853 5852 5852 5851 5851 5850 5849 5848 5847 5846 5845 5844 5842 5841 5839 5838 5837 5836 5835 5834 5833 5831 5830 5828 5827 5826 5824 5823 5821 5820 5819 5818 5817 5816 5814 5813 5811 5810 5809 5808 5807 5806 5805
5846 5846 5845 5844 5844 5843 5842 5841 5840 5839 5838 5837 5836 5834 5833 5832 5830 5829 5828 5826 5825 5823 5822 5820 5819 5817 5816 5814 5813 5811 5810 5809 5808 5807 5805 5805 5803 5801 5800 5799 5798 5797 5796
5839 5838 5838 5837 5836 5835 5834 5833 5832 5831 5830 5829 5828 5827 5825 5824 5822 5821 5819 5818 5816 5815 5813 5811 5810 5809 5807 5805 5804 5802 5801 5800 5799 5797 5796 5796 5794 5792 5791 5789 5788 5787 5786
5831 5830 5830 5829 5828 5827 5826 5825 5823 5822 5821 5821 5820 5818 5817 5815 5814 5812 5811 5809 5807 5805 5803 5802 5801 5799 5797 5796 5794 5793 5791 5790 5789 5788 5786 5785 5784 5782 5781 5779 5777 5776 5775
5823 5822 5821 5820 5820 5819 5818 5816 5815 5813 5812 5812 5811 5809 5807 5806 5805 5802 5801 5799 5797 5796 5794 5792 5790 5788 5787 5786 5784 5782 5781 5780 5779 5778 5776 5775 5773 5771 5771 5770 5768 5766 5765